Find Starlink 11393

NORAD ID: 62016 Int'l Des: 2024-213 Owner: SPXS Country: US Constellation: starlink operational
LEOCIRCULAR

現在のビュー

3D地球を読み込み中...

About Starlink 11393

Starlink 11393 (NORAD 62016) is a starlink constellation satellite (v2 mini d2c) launched Nov 18, 2024 by SPXS of US. It operates in LEO, CIRCULAR orbit with a mass of 960.00 kg.

Starlink 11393について

説明を読み込み中...

次回通過

Passes for default location (London). Set your location on the main map for personalized predictions.

高度履歴

Loading altitude history...

軌道要素

1 62016C 24213J 26173.92270833 -.00076257 00000+0 -62822-3 0 1735
2 62016 53.1569 242.2145 0001044 83.5995 40.8468 15.69745185 16
Epoch: Jun 22, 2026 • Age: 22 hours

現在のステータス

高度 360.9 km
速度 7.69 km/s
衛星直下点 0.40°N, 17.78°E
打ち上げ日 Nov 18, 2024
運用期間 1.5 years
タイプ internet

技術仕様

分類 Payload
質量 960.00 kg
乾燥質量 910.00 kg
総質量 960.00 kg
長さ 0.30 m
直径 4.10 m
スパン 29.00 m
形状 Box + pan
製造者 SPXS
バスタイプ Starlink V2MD
フェーズステータス In Orbit
所有者/国 SPXS/US

Most Searched